NOZ26F ENGM-EDDH

Flight info

Callsign NOZ26F
Flight time 1h 8m
Altitude 37000
Route VIPPA DCT AAL DCT LUTUS P615 ALS M852 EKERN T905 BOGMU BOGMU3N
Aircraft B38M/M-SDE2E3GIJ1LRWXY/LB2

Departure

Time 2026-05-01 11:46
Airport Oslo-Gardermoen International Airport (ENGM)

Arrival

Time 2026-05-01 12:55
Airport Hamburg Helmut Schmidt Airport (EDDH)
Time Latitude Longitude Altitude Speed Heading
2026-05-01 11:07 60.19592 11.09923 694 ft 0 kts 107°
2026-05-01 11:32 60.19593 11.09917 694 ft 3 kts 107°
2026-05-01 11:33 60.19600 11.09865 689 ft 4 kts 104°
2026-05-01 11:33 60.19603 11.09841 688 ft 1 kts 107°
2026-05-01 11:39 60.19602 11.09846 687 ft 1 kts 107°
2026-05-01 11:39 60.19600 11.09850 688 ft 0 kts 133°
2026-05-01 11:39 60.19597 11.09851 688 ft 1 kts 169°
2026-05-01 11:39 60.19594 11.09844 687 ft 1 kts 236°
2026-05-01 11:40 60.19593 11.09839 687 ft 0 kts 248°
2026-05-01 11:40 60.19593 11.09834 687 ft 0 kts 262°
2026-05-01 11:40 60.19599 11.09817 694 ft 5 kts 304°
2026-05-01 11:41 60.19636 11.09690 693 ft 15 kts 294°
2026-05-01 11:41 60.19672 11.09453 691 ft 19 kts 286°
2026-05-01 11:41 60.19711 11.09185 687 ft 21 kts 286°
2026-05-01 11:41 60.19749 11.08917 690 ft 18 kts 285°
2026-05-01 11:42 60.19794 11.08696 684 ft 15 kts 333°
2026-05-01 11:42 60.19899 11.08738 684 ft 18 kts 17°
2026-05-01 11:42 60.20053 11.08831 683 ft 28 kts 16°
2026-05-01 11:42 60.20247 11.08942 682 ft 30 kts 15°
2026-05-01 11:43 60.20449 11.09059 681 ft 31 kts 16°
2026-05-01 11:43 60.20659 11.09180 685 ft 32 kts 16°
2026-05-01 11:43 60.20872 11.09302 690 ft 32 kts 16°
2026-05-01 11:44 60.21321 11.09563 684 ft 32 kts 16°
2026-05-01 11:44 60.21463 11.09637 686 ft 13 kts
2026-05-01 11:44 60.21536 11.09553 683 ft 14 kts 298°
2026-05-01 11:44 60.21566 11.09360 687 ft 15 kts 284°
2026-05-01 11:45 60.21587 11.09167 687 ft 8 kts 257°
2026-05-01 11:45 60.21560 11.09136 683 ft 6 kts 197°
2026-05-01 11:45 60.21385 11.09035 684 ft 59 kts 196°
2026-05-01 11:45 60.20775 11.08682 686 ft 121 kts 196°
2026-05-01 11:46 60.19800 11.08132 713 ft 165 kts 196°
2026-05-01 11:46 60.18673 11.07493 1249 ft 172 kts 195°
2026-05-01 11:46 60.17547 11.06816 2039 ft 172 kts 199°
2026-05-01 11:46 60.16538 11.05605 2727 ft 165 kts 233°
2026-05-01 11:47 60.15996 11.03621 3544 ft 166 kts 245°
2026-05-01 11:47 60.15497 11.01391 3992 ft 185 kts 247°
2026-05-01 11:47 60.14925 10.98818 4378 ft 216 kts 246°
2026-05-01 11:47 60.14207 10.96026 5068 ft 237 kts 236°
2026-05-01 11:48 60.12922 10.93758 5827 ft 256 kts 211°
2026-05-01 11:48 60.11313 10.92283 7040 ft 253 kts 211°
2026-05-01 11:48 60.09724 10.90719 8082 ft 256 kts 211°
2026-05-01 11:48 60.08118 10.89126 9114 ft 260 kts 211°
2026-05-01 11:49 60.06483 10.87482 10073 ft 266 kts 211°
2026-05-01 11:49 60.04819 10.85799 10914 ft 274 kts 212°
2026-05-01 11:49 60.03058 10.84008 11365 ft 293 kts 211°
2026-05-01 11:49 60.01200 10.82122 11932 ft 306 kts 212°
2026-05-01 11:50 59.99297 10.80196 12800 ft 308 kts 212°
2026-05-01 11:50 59.97367 10.78251 13671 ft 313 kts 212°
2026-05-01 11:50 59.95416 10.76286 14453 ft 316 kts 212°
2026-05-01 11:50 59.93809 10.74672 15057 ft 318 kts 212°
2026-05-01 11:51 59.92004 10.72859 15725 ft 321 kts 212°
2026-05-01 11:51 59.90047 10.70897 16414 ft 324 kts 212°
2026-05-01 11:51 59.88025 10.68872 17115 ft 326 kts 212°
2026-05-01 11:51 59.85989 10.66846 17789 ft 330 kts 211°
2026-05-01 11:52 59.83781 10.65352 18492 ft 340 kts 199°
2026-05-01 11:52 59.81471 10.64286 19063 ft 343 kts 200°
2026-05-01 11:52 59.79143 10.63174 19610 ft 346 kts 200°
2026-05-01 11:52 59.76835 10.62061 20130 ft 350 kts 200°
2026-05-01 11:53 59.74471 10.60916 20657 ft 353 kts 200°
2026-05-01 11:53 59.72074 10.59754 21181 ft 356 kts 199°
2026-05-01 11:53 59.69652 10.58579 21715 ft 360 kts 199°
2026-05-01 11:53 59.67210 10.57360 22174 ft 364 kts 199°
2026-05-01 11:54 59.64740 10.56182 22647 ft 368 kts 199°
2026-05-01 11:54 59.62246 10.54991 23247 ft 369 kts 199°
2026-05-01 11:54 59.59736 10.53785 23737 ft 373 kts 199°
2026-05-01 11:54 59.57234 10.52582 24190 ft 376 kts 199°
2026-05-01 11:55 59.54681 10.51355 24634 ft 379 kts 199°
2026-05-01 11:55 59.52109 10.50122 25077 ft 382 kts 199°
2026-05-01 11:55 59.49575 10.48908 25498 ft 385 kts 199°
2026-05-01 11:55 59.46963 10.47658 25929 ft 387 kts 199°
2026-05-01 11:56 59.44338 10.46405 26317 ft 390 kts 198°
2026-05-01 11:56 59.41686 10.45140 26735 ft 393 kts 198°
2026-05-01 11:56 59.39034 10.43877 27155 ft 396 kts 198°
2026-05-01 11:56 59.36347 10.42601 27557 ft 399 kts 198°
2026-05-01 11:57 59.33640 10.41316 27967 ft 401 kts 198°
2026-05-01 11:57 59.30921 10.40028 28366 ft 404 kts 198°
2026-05-01 11:57 59.28242 10.38761 28753 ft 406 kts 198°
2026-05-01 11:57 59.25497 10.37465 29129 ft 409 kts 198°
2026-05-01 11:58 59.22721 10.36156 29512 ft 411 kts 198°
2026-05-01 11:58 59.19932 10.34844 29887 ft 414 kts 198°
2026-05-01 11:58 59.14460 10.32275 30501 ft 419 kts 197°
2026-05-01 11:59 59.11621 10.30945 30818 ft 421 kts 197°
2026-05-01 11:59 59.08769 10.29612 31126 ft 423 kts 197°
2026-05-01 11:59 59.05900 10.28273 31426 ft 425 kts 197°
2026-05-01 12:00 59.00136 10.25590 32020 ft 429 kts 198°
2026-05-01 12:00 58.97231 10.24242 32315 ft 431 kts 198°
2026-05-01 12:00 58.91260 10.22480 32902 ft 439 kts 188°
2026-05-01 12:01 58.88210 10.22066 33148 ft 441 kts 188°
2026-05-01 12:01 58.85147 10.21652 33484 ft 442 kts 188°
2026-05-01 12:01 58.82084 10.21244 33890 ft 441 kts 188°
2026-05-01 12:01 58.79030 10.20839 34287 ft 440 kts 188°
2026-05-01 12:02 58.75992 10.20437 34613 ft 439 kts 188°
2026-05-01 12:02 58.72946 10.20035 34935 ft 438 kts 188°
2026-05-01 12:02 58.69903 10.19634 35254 ft 438 kts 188°
2026-05-01 12:02 58.66865 10.19235 35559 ft 438 kts 188°
2026-05-01 12:03 58.63830 10.18836 35849 ft 437 kts 188°
2026-05-01 12:03 58.60793 10.18440 36120 ft 437 kts 187°
2026-05-01 12:03 58.57757 10.18042 36381 ft 437 kts 187°
2026-05-01 12:03 58.54727 10.17646 36657 ft 437 kts 187°
2026-05-01 12:04 58.51710 10.17253 36931 ft 436 kts 187°
2026-05-01 12:04 58.48682 10.16859 37185 ft 436 kts 187°
2026-05-01 12:04 58.45648 10.16464 37315 ft 437 kts 187°
2026-05-01 12:05 58.39603 10.15682 37299 ft 434 kts 187°
2026-05-01 12:05 58.30593 10.14519 37300 ft 434 kts 187°
2026-05-01 12:06 58.24531 10.13741 37312 ft 435 kts 187°
2026-05-01 12:06 58.18538 10.12973 37317 ft 435 kts 187°
2026-05-01 12:07 58.12503 10.12204 37317 ft 435 kts 187°
2026-05-01 12:07 58.06468 10.11436 37312 ft 435 kts 187°
2026-05-01 12:08 58.00445 10.10673 37326 ft 435 kts 187°
2026-05-01 12:08 57.94401 10.09910 37335 ft 435 kts 187°
2026-05-01 12:09 57.88363 10.09150 37334 ft 435 kts 187°
2026-05-01 12:09 57.82325 10.08392 37341 ft 435 kts 187°
2026-05-01 12:10 57.73262 10.07260 37348 ft 437 kts 187°
2026-05-01 12:11 57.64222 10.05665 37320 ft 431 kts 200°
2026-05-01 12:11 57.61547 10.03331 37340 ft 423 kts 217°
2026-05-01 12:11 57.59417 9.99702 37345 ft 420 kts 234°
2026-05-01 12:12 57.57956 9.95043 37353 ft 417 kts 249°
2026-05-01 12:12 57.56929 9.89894 37347 ft 420 kts 251°
2026-05-01 12:12 57.55787 9.85006 37335 ft 420 kts 238°
2026-05-01 12:12 57.53898 9.80891 37331 ft 421 kts 221°
2026-05-01 12:13 57.48791 9.75472 37327 ft 431 kts 197°
2026-05-01 12:13 57.45817 9.74635 37352 ft 436 kts 183°
2026-05-01 12:13 57.42781 9.75038 37359 ft 439 kts 178°
2026-05-01 12:14 57.36676 9.75685 37352 ft 440 kts 180°
2026-05-01 12:14 57.30578 9.76218 37361 ft 440 kts 180°
2026-05-01 12:15 57.24467 9.76740 37363 ft 440 kts 179°
2026-05-01 12:15 57.18341 9.77259 37371 ft 441 kts 179°
2026-05-01 12:16 57.12211 9.77777 37373 ft 441 kts 179°
2026-05-01 12:16 57.06119 9.78291 37375 ft 441 kts 179°
2026-05-01 12:17 56.99994 9.78805 37372 ft 441 kts 179°
2026-05-01 12:17 56.93877 9.79317 37350 ft 441 kts 179°
2026-05-01 12:18 56.87737 9.79829 37350 ft 441 kts 179°
2026-05-01 12:18 56.81616 9.80339 37352 ft 441 kts 179°
2026-05-01 12:19 56.75480 9.80847 37349 ft 441 kts 179°
2026-05-01 12:19 56.69349 9.81355 37348 ft 442 kts 179°
2026-05-01 12:20 56.63200 9.81860 37347 ft 442 kts 179°
2026-05-01 12:20 56.57073 9.82363 37353 ft 442 kts 179°
2026-05-01 12:21 56.50968 9.82862 37353 ft 442 kts 179°
2026-05-01 12:21 56.44821 9.83366 37343 ft 442 kts 179°
2026-05-01 12:22 56.39670 9.83783 37358 ft 443 kts 178°
2026-05-01 12:22 56.32504 9.84363 37364 ft 443 kts 179°
2026-05-01 12:23 56.27356 9.84780 37348 ft 443 kts 179°
2026-05-01 12:23 56.21193 9.85277 37351 ft 443 kts 178°
2026-05-01 12:24 56.15071 9.85769 37361 ft 443 kts 179°
2026-05-01 12:24 56.08905 9.86262 37350 ft 443 kts 179°
2026-05-01 12:25 55.99678 9.86998 37360 ft 443 kts 178°
2026-05-01 12:26 55.93517 9.87488 37368 ft 443 kts 179°
2026-05-01 12:26 55.84277 9.88218 37371 ft 443 kts 178°
2026-05-01 12:27 55.75050 9.88944 37374 ft 443 kts 179°
2026-05-01 12:28 55.65813 9.89667 37379 ft 443 kts 178°
2026-05-01 12:28 55.59712 9.90148 37103 ft 431 kts 178°
2026-05-01 12:29 55.56742 9.90381 36602 ft 427 kts 178°
2026-05-01 12:29 55.53783 9.90609 36077 ft 424 kts 178°
2026-05-01 12:29 55.47925 9.91063 35100 ft 418 kts 178°
2026-05-01 12:30 55.42144 9.91509 34100 ft 414 kts 178°
2026-05-01 12:30 55.39272 9.91731 33559 ft 411 kts 178°
2026-05-01 12:30 55.36430 9.91951 33083 ft 407 kts 177°
2026-05-01 12:31 55.33613 9.92168 32624 ft 404 kts 177°
2026-05-01 12:31 55.30831 9.92382 32166 ft 400 kts 177°
2026-05-01 12:31 55.28055 9.92595 31712 ft 398 kts 177°
2026-05-01 12:31 55.25300 9.92806 31271 ft 395 kts 177°
2026-05-01 12:32 55.22570 9.93015 30841 ft 392 kts 177°
2026-05-01 12:32 55.17148 9.93428 29902 ft 387 kts 178°
2026-05-01 12:32 55.14473 9.93632 29465 ft 383 kts 178°
2026-05-01 12:33 55.11822 9.93834 29057 ft 379 kts 178°
2026-05-01 12:33 55.09198 9.94034 28645 ft 376 kts 177°
2026-05-01 12:33 55.06645 9.94227 28255 ft 372 kts 177°
2026-05-01 12:33 55.04073 9.94422 27862 ft 369 kts 177°
2026-05-01 12:34 55.01524 9.94615 27464 ft 365 kts 177°
2026-05-01 12:34 54.98991 9.94806 27087 ft 362 kts 178°
2026-05-01 12:34 54.96483 9.94995 26706 ft 360 kts 178°
2026-05-01 12:34 54.93991 9.95183 26329 ft 357 kts 178°
2026-05-01 12:35 54.91515 9.95369 25956 ft 355 kts 178°
2026-05-01 12:35 54.89062 9.95553 25593 ft 353 kts 178°
2026-05-01 12:35 54.86614 9.95703 25184 ft 351 kts 181°
2026-05-01 12:35 54.84183 9.95124 24508 ft 354 kts 190°
2026-05-01 12:36 54.81766 9.94484 23853 ft 352 kts 187°
2026-05-01 12:36 54.79348 9.93917 23116 ft 350 kts 187°
2026-05-01 12:36 54.76941 9.93377 22386 ft 348 kts 187°
2026-05-01 12:36 54.74549 9.92857 21679 ft 345 kts 187°
2026-05-01 12:37 54.72168 9.92348 20995 ft 343 kts 187°
2026-05-01 12:37 54.69804 9.91847 20334 ft 341 kts 187°
2026-05-01 12:37 54.67455 9.91352 19688 ft 339 kts 187°
2026-05-01 12:37 54.65125 9.90862 19059 ft 337 kts 187°
2026-05-01 12:38 54.62808 9.90375 18410 ft 335 kts 187°
2026-05-01 12:38 54.60504 9.89891 17718 ft 332 kts 187°
2026-05-01 12:38 54.58223 9.89413 17051 ft 329 kts 187°
2026-05-01 12:38 54.55971 9.88942 16401 ft 326 kts 187°
2026-05-01 12:39 54.53730 9.88473 15765 ft 323 kts 187°
2026-05-01 12:39 54.51509 9.88009 15145 ft 320 kts 186°
2026-05-01 12:39 54.49314 9.87551 14538 ft 316 kts 186°
2026-05-01 12:39 54.47144 9.87098 13973 ft 312 kts 186°
2026-05-01 12:40 54.45016 9.86655 13472 ft 303 kts 186°
2026-05-01 12:40 54.42946 9.86224 13166 ft 298 kts 186°
2026-05-01 12:40 54.40900 9.85799 12857 ft 295 kts 186°
2026-05-01 12:40 54.38876 9.85379 12538 ft 292 kts 186°
2026-05-01 12:41 54.36892 9.84967 12221 ft 290 kts 186°
2026-05-01 12:41 54.34898 9.84553 11934 ft 287 kts 185°
2026-05-01 12:41 54.32933 9.84147 11715 ft 282 kts 186°
2026-05-01 12:41 54.30982 9.83744 11518 ft 279 kts 186°
2026-05-01 12:42 54.29090 9.83353 11392 ft 277 kts 186°
2026-05-01 12:42 54.27172 9.82957 11373 ft 277 kts 186°
2026-05-01 12:42 54.25304 9.82571 11380 ft 264 kts 185°
2026-05-01 12:42 54.23516 9.82204 11372 ft 255 kts 185°
2026-05-01 12:43 54.21765 9.81843 11105 ft 255 kts 185°
2026-05-01 12:43 54.19966 9.81472 10536 ft 266 kts 185°
2026-05-01 12:43 54.18099 9.81089 9994 ft 273 kts 185°
2026-05-01 12:43 54.16217 9.80703 9376 ft 273 kts 186°
2026-05-01 12:44 54.14341 9.80317 8824 ft 270 kts 186°
2026-05-01 12:44 54.12481 9.79936 8297 ft 268 kts 186°
2026-05-01 12:44 54.08795 9.79181 7758 ft 267 kts 185°
2026-05-01 12:45 54.05116 9.78436 7387 ft 264 kts 186°
2026-05-01 12:45 54.03326 9.78068 7280 ft 254 kts 186°
2026-05-01 12:45 54.01605 9.77717 7197 ft 243 kts 185°
2026-05-01 12:46 53.99988 9.77126 6976 ft 234 kts 199°
2026-05-01 12:46 53.98512 9.76019 6590 ft 232 kts 204°
2026-05-01 12:46 53.97073 9.74823 6121 ft 227 kts 204°
2026-05-01 12:46 53.95593 9.73909 5497 ft 226 kts 189°
2026-05-01 12:47 53.94071 9.73597 5138 ft 215 kts 181°
2026-05-01 12:47 53.92651 9.74019 4851 ft 202 kts 160°
2026-05-01 12:47 53.91398 9.74959 4639 ft 193 kts 155°
2026-05-01 12:47 53.90234 9.75939 4526 ft 180 kts 154°
2026-05-01 12:48 53.89150 9.76872 4466 ft 171 kts 154°
2026-05-01 12:48 53.88095 9.77797 4376 ft 170 kts 153°
2026-05-01 12:48 53.87041 9.78719 4342 ft 171 kts 153°
2026-05-01 12:48 53.85983 9.79643 4315 ft 171 kts 153°
2026-05-01 12:49 53.84946 9.80552 4215 ft 173 kts 153°
2026-05-01 12:49 53.83878 9.81484 3989 ft 171 kts 152°
2026-05-01 12:49 53.82851 9.82383 3806 ft 171 kts 152°
2026-05-01 12:49 53.81797 9.83305 3599 ft 170 kts 153°
2026-05-01 12:50 53.80747 9.84221 3398 ft 170 kts 152°
2026-05-01 12:50 53.79690 9.85140 3198 ft 171 kts 152°
2026-05-01 12:50 53.78625 9.86064 2930 ft 174 kts 152°
2026-05-01 12:50 53.77569 9.86996 2739 ft 169 kts 152°
2026-05-01 12:51 53.76512 9.87908 2503 ft 171 kts 154°
2026-05-01 12:51 53.75459 9.88810 2266 ft 168 kts 151°
2026-05-01 12:51 53.73398 9.90631 1865 ft 163 kts 152°
2026-05-01 12:52 53.72400 9.91482 1623 ft 157 kts 152°
2026-05-01 12:52 53.70603 9.93043 1218 ft 139 kts 152°
2026-05-01 12:52 53.69753 9.93788 1019 ft 138 kts 152°
2026-05-01 12:53 53.68077 9.95239 689 ft 135 kts 151°
2026-05-01 12:53 53.67252 9.95963 492 ft 133 kts 152°
2026-05-01 12:53 53.66422 9.96644 310 ft 134 kts 154°
2026-05-01 12:54 53.65564 9.97416 148 ft 142 kts 152°
2026-05-01 12:54 53.64084 9.98694 51 ft 74 kts 153°
2026-05-01 12:54 53.63701 9.99027 50 ft 54 kts 153°
2026-05-01 12:55 53.63294 9.99500 48 ft 15 kts 105°
2026-05-01 12:55 53.63283 9.99598 48 ft 4 kts 99°
2026-05-01 12:55 53.63279 9.99636 51 ft 4 kts 99°
2026-05-01 12:56 53.63274 9.99686 51 ft 5 kts 103°
2026-05-01 12:56 53.63246 9.99742 51 ft 8 kts 150°
2026-05-01 12:56 53.63190 9.99789 51 ft 10 kts 153°
2026-05-01 12:56 53.63125 9.99844 48 ft 11 kts 152°
2026-05-01 12:57 53.63054 9.99908 49 ft 13 kts 153°
2026-05-01 12:57 53.62863 10.00060 51 ft 17 kts 158°
2026-05-01 12:57 53.62755 10.00150 51 ft 16 kts 152°
2026-05-01 12:58 53.62710 10.00200 47 ft 3 kts 117°
2026-05-01 12:58 53.62717 10.00237 51 ft 4 kts 63°
2026-05-01 12:58 53.62727 10.00269 46 ft 3 kts 62°
2026-05-01 12:59 53.62737 10.00300 49 ft 0 kts 62°